QPF
0.00 0.00 0.00 0.00 0.00 0.00 0.00 0.00 0.00 0.00 0.00 0.00 0.00 0.00 0.00 0.00 0.00 0.00 0.00 0.00 0.00 0.00 0.00 0.00 0.00 0.00 0.00 0.00 0.00 0.00 0.00 0.00 0.00 0.00 0.00 0.00 0.00 0.00 0.00 0.00 0.00 0.00 0.00 0.00 0.00
0.00 0.00 0.00 0.00 0.00 0.00 0.00 0.00 0.00 0.00 0.00 0.00 0.00 0.00 0.00 0.00 0.00 0.00 0.00 0.00 0.00 0.00 0.00 0.00 0.00 0.00 0.00 0.00 0.00 0.00 0.00 0.00 0.00 0.00 0.00 0.00 0.00 0.00 0.00 0.00 0.00 0.00 0.00 0.00 0.00
0.00 0.00 0.00 0.00 0.00 0.00 0.00 0.00 0.00 0.00 0.00 0.00 0.00 0.00 0.00 0.00 0.00 0.00 0.00 0.00 0.00 0.00 0.00 0.00 0.00 0.00 0.00 0.00 0.00 0.00 0.00 0.00 0.00 0.00 0.00 0.00 0.00 0.00 0.00 0.00 0.00 0.00 0.00 0.00 0.00
0.00 0.00 0.00 0.00 0.00 0.00 0.00 0.00 0.00 0.00 0.00 0.00 0.00 0.00 0.00 0.00 0.00 0.00 0.00 0.00 0.00 0.00 0.00 0.00 0.00 0.00 0.00 0.00 0.00 0.00 0.00 0.00 0.00 0.00 0.00 0.00 0.00 0.00 0.00 0.00 0.00 0.00 0.00 0.00 0.00
0.00 0.00 0.00 0.00 0.00 0.00 0.00 0.00 0.00 0.00 0.00 0.00 0.00 0.00 0.00 0.00 0.00 0.00 0.00 0.00 0.00 0.00 0.00 0.00 0.00 0.00 0.00 0.00 0.00 0.00 0.00 0.00 0.00 0.00 0.00 0.00 0.00 0.00 0.00 0.00 0.00 0.00 0.00 0.00 0.00
0.00 0.00 0.00 0.00 0.00 0.00 0.00 0.00 0.00 0.00 0.00 0.00 0.00 0.00 0.00 0.00 0.00 0.00 0.00 0.00 0.00 0.00 0.00 0.00 0.00 0.00 0.00 0.00 0.00 0.00 0.00 0.00 0.00 0.00 0.00 0.00 0.00 0.00 0.00 0.00 0.00 0.00 0.00 0.00 0.00
0.00 0.00 0.00 0.00 0.00 0.00 0.00 0.00 0.00 0.00 0.00 0.00 0.00 0.00 0.00 0.00 0.00 0.00 0.00 0.00 0.00 0.00 0.00 0.00 0.00 0.00 0.00 0.00 0.00 0.00 0.00 0.00 0.00 0.00 0.00 0.00 0.00 0.00 0.00 0.00 0.00 0.00 0.00 0.00 0.02
0.00 0.00 0.00 0.00 0.00 0.00 0.00 0.00 0.00 0.00 0.00 0.00 0.00 0.00 0.00 0.00 0.00 0.00 0.00 0.00 0.00 0.00 0.00 0.00 0.00 0.00 0.00 0.00 0.00 0.00 0.00 0.00 0.00 0.00 0.00 0.00 0.00 0.00 0.00 0.00 0.00 0.00 0.00 0.00 0.04
0.00 0.00 0.00 0.00 0.00 0.00 0.00 0.00 0.00 0.00 0.00 0.00 0.00 0.00 0.00 0.00 0.00 0.00 0.00 0.00 0.00 0.00 0.00 0.00 0.00 0.00 0.00 0.00 0.00 0.00 0.00 0.00 0.00 0.00 0.00 0.00 0.00 0.00 0.00 0.00 0.00 0.01 0.00 0.05 0.13
0.00 0.00 0.00 0.00 0.00 0.00 0.00 0.00 0.00 0.00 0.00 0.00 0.00 0.00 0.00 0.00 0.00 0.00 0.00 0.00 0.00 0.00 0.00 0.00 0.00 0.00 0.00 0.00 0.00 0.00 0.00 0.00 0.00 0.00 0.00 0.00 0.00 0.00 0.00 0.00 0.00 0.00 0.00 0.11 0.20
0.00 0.00 0.00 0.00 0.00 0.00 0.00 0.00 0.00 0.00 0.00 0.00 0.00 0.00 0.00 0.00 0.00 0.00 0.00 0.00 0.00 0.00 0.00 0.00 0.00 0.00 0.00 0.00 0.00 0.00 0.00 0.00 0.00 0.00 0.00 0.00 0.00 0.00 0.00 0.00 0.00 0.00 0.00 0.10 0.07
0.00 0.00 0.00 0.00 0.00 0.00 0.00 0.00 0.00 0.00 0.00 0.00 0.00 0.00 0.00 0.00 0.00 0.00 0.00 0.00 0.00 0.00 0.00 0.00 0.00 0.00 0.00 0.00 0.00 0.00 0.00 0.00 0.00 0.00 0.00 0.00 0.00 0.00 0.00 0.00 0.00 0.00 0.00 0.00 0.01
0.00 0.00 0.00 0.00 0.00 0.00 0.00 0.00 0.00 0.00 0.00 0.00 0.00 0.00 0.00 0.00 0.00 0.00 0.00 0.00 0.00 0.00 0.00 0.00 0.00 0.00 0.00 0.00 0.00 0.00 0.00 0.00 0.00 0.00 0.00 0.00 0.00 0.00 0.00 0.00 0.00 0.00 0.00 0.00 0.00
0.00 0.00 0.00 0.00 0.00 0.00 0.00 0.00 0.00 0.00 0.00 0.00 0.00 0.00 0.00 0.00 0.00 0.00 0.00 0.00 0.00 0.00 0.00 0.00 0.00 0.00 0.00 0.00 0.00 0.00 0.00 0.00 0.00 0.00 0.00 0.00 0.00 0.00 0.00 0.00 0.00 0.00 0.00 0.00 0.00
0.00 0.00 0.00 0.00 0.00 0.00 0.00 0.00 0.00 0.00 0.00 0.00 0.00 0.00 0.00 0.00 0.00 0.00 0.00 0.00 0.00 0.00 0.00 0.00 0.00 0.00 0.00 0.00 0.00 0.00 0.00 0.00 0.00 0.00 0.00 0.00 0.00 0.00 0.00 0.00 0.00 0.00 0.00 0.00 0.00
0.00 0.00 0.00 0.00 0.00 0.00 0.00 0.00 0.00 0.00 0.00 0.00 0.00 0.00 0.00 0.00 0.00 0.00 0.00 0.00 0.00 0.00 0.00 0.00 0.00 0.00 0.00 0.00 0.00 0.00 0.00 0.00 0.00 0.00 0.00 0.00 0.00 0.00 0.00 0.00 0.00 0.00 0.00 0.00 0.00
0.00 0.00 0.00 0.00 0.00 0.00 0.00 0.00 0.00 0.00 0.00 0.00 0.00 0.00 0.00 0.00 0.00 0.00 0.00 0.00 0.00 0.00 0.00 0.00 0.00 0.00 0.00 0.00 0.00 0.00 0.00 0.00 0.00 0.00 0.00 0.00 0.00 0.00 0.00 0.00 0.00 0.00 0.00 0.00 0.00
0.00 0.00 0.00 0.00 0.00 0.00 0.00 0.00 0.00 0.00 0.00 0.00 0.00 0.00 0.00 0.00 0.00 0.00 0.00 0.00 0.00 0.00 0.00 0.00 0.00 0.00 0.00 0.00 0.00 0.00 0.00 0.00 0.00 0.00 0.00 0.00 0.00 0.00 0.00 0.00 0.00 0.00 0.00 0.00 0.00
0.00 0.00 0.00 0.00 0.00 0.00 0.00 0.00 0.00 0.00 0.00 0.00 0.00 0.00 0.00 0.00 0.00 0.00 0.00 0.00 0.00 0.00 0.00 0.00 0.00 0.00 0.00 0.00 0.00 0.00 0.00 0.00 0.00 0.00 0.00 0.00 0.00 0.00 0.00 0.00 0.00 0.00 0.00 0.00 0.00
0.00 0.00 0.00 0.00 0.00 0.00 0.00 0.00 0.00 0.00 0.00 0.00 0.00 0.00 0.00 0.00 0.00 0.00 0.00 0.00 0.00 0.00 0.00 0.00 0.00 0.00 0.00 0.00 0.00 0.00 0.00 0.00 0.00 0.00 0.00 0.00 0.00 0.00 0.00 0.00 0.00 0.00 0.00 0.00 0.00
0.00 0.00 0.00 0.00 0.00 0.00 0.00 0.00 0.00 0.00 0.00 0.00 0.00 0.00 0.00 0.00 0.00 0.00 0.00 0.00 0.00 0.00 0.00 0.00 0.00 0.00 0.00 0.00 0.00 0.00 0.00 0.00 0.00 0.00 0.00 0.00 0.00 0.00 0.00 0.00 0.00 0.00 0.00 0.00 0.00
0.00 0.00 0.00 0.00 0.00 0.00 0.00 0.00 0.00 0.00 0.00 0.00 0.00 0.00 0.00 0.00 0.00 0.00 0.00 0.00 0.00 0.00 0.00 0.00 0.00 0.00 0.00 0.00 0.00 0.00 0.00 0.00 0.00 0.00 0.00 0.00 0.00 0.00 0.00 0.00 0.00 0.00 0.00 0.00 0.00
0.00 0.00 0.00 0.00 0.00 0.00 0.00 0.00 0.00 0.00 0.00 0.00 0.00 0.00 0.00 0.00 0.00 0.00 0.00 0.00 0.00 0.00 0.00 0.00 0.00 0.00 0.00 0.00 0.00 0.00 0.00 0.00 0.00 0.00 0.00 0.00 0.00 0.00 0.00 0.00 0.00 0.00 0.00 0.00 0.00
0.00 0.00 0.00 0.00 0.00 0.00 0.00 0.00 0.00 0.00 0.00 0.00 0.00 0.00 0.00 0.00 0.00 0.00 0.00 0.00 0.00 0.00 0.00 0.00 0.00 0.00 0.00 0.00 0.00 0.00 0.00 0.00 0.00 0.00 0.00 0.00 0.00 0.00 0.00 0.00 0.00 0.00 0.00 0.00 0.00
0.00 0.00 0.00 0.00 0.00 0.00 0.00 0.00 0.00 0.00 0.00 0.02 0.00 0.00 0.00 0.00 0.00 0.00 0.00 0.00 0.00 0.00 0.00 0.00 0.00 0.00 0.00 0.00 0.00 0.00 0.00 0.00 0.00 0.00 0.00 0.00 0.00 0.00 0.00 0.00 0.00 0.00 0.00 0.00 0.00
0.00 0.00 0.00 0.00 0.00 0.00 0.00 0.00 0.00 0.00 0.00 0.00 0.00 0.00 0.00 0.00 0.00 0.00 0.00 0.00 0.00 0.00 0.00 0.00 0.00 0.00 0.00 0.00 0.00 0.00 0.00 0.00 0.00 0.00 0.00 0.00 0.00 0.00 0.00 0.00 0.00 0.00 0.00 0.00 0.00
0.00 0.00 0.00 0.00 0.00 0.00 0.00 0.00 0.00 0.00 0.00 0.00 0.00 0.00 0.00 0.00 0.01 0.00 0.00 0.00 0.00 0.00 0.00 0.00 0.00 0.00 0.00 0.00 0.00 0.00 0.00 0.00 0.00 0.00 0.00 0.00 0.00 0.00 0.00 0.00 0.00 0.00 0.00 0.00 0.00
MSLP
1017.38 1017.09 1016.83 1016.58 1016.44 1016.25 1016.16 1016.03 1015.90 1015.80 1015.64 1015.43 1015.28 1015.05 1014.65 1014.15 1013.18 1012.49 1010.38 1009.22 1009.27 1009.53 1009.42 1008.39 1008.04 1007.57 1007.37 1006.72 1006.84 1006.70 1005.19 1004.94 1005.06 1004.91 1005.49 1005.97 1006.15 1006.43 1006.50 1006.66 1007.25 1007.96 1008.25 1008.93 1010.99
1017.39 1017.05 1016.73 1016.48 1016.32 1016.13 1015.98 1015.90 1015.82 1015.67 1015.52 1015.33 1015.17 1014.99 1014.56 1014.13 1012.48 1010.37 1008.67 1009.13 1009.61 1009.51 1008.81 1007.84 1007.15 1007.01 1006.25 1006.28 1006.40 1005.93 1004.99 1005.37 1005.54 1005.22 1004.96 1005.67 1005.77 1005.84 1006.24 1006.38 1007.24 1008.43 1009.24 1010.06 1011.48
1017.38 1017.04 1016.69 1016.41 1016.18 1016.00 1015.83 1015.78 1015.68 1015.51 1015.37 1015.20 1015.03 1014.82 1014.46 1013.93 1011.46 1008.15 1008.67 1009.07 1009.50 1009.42 1008.58 1008.00 1007.42 1006.69 1005.89 1005.93 1005.91 1005.71 1005.30 1005.61 1005.30 1005.33 1005.31 1005.24 1005.64 1005.83 1005.91 1006.09 1006.43 1007.61 1009.52 1010.70 1011.57
1017.29 1016.97 1016.67 1016.36 1016.09 1015.86 1015.68 1015.60 1015.50 1015.41 1015.29 1015.07 1014.92 1014.61 1014.25 1013.01 1009.47 1007.91 1008.61 1008.69 1009.17 1008.92 1008.45 1007.62 1006.90 1006.02 1005.68 1005.40 1005.65 1005.34 1005.48 1005.45 1005.25 1005.32 1005.38 1005.37 1005.64 1005.87 1006.12 1006.54 1007.15 1007.39 1009.10 1010.61 1011.34
1017.22 1016.93 1016.60 1016.27 1015.94 1015.73 1015.53 1015.42 1015.36 1015.33 1015.21 1014.98 1014.76 1014.47 1013.66 1011.26 1008.36 1008.06 1008.32 1008.43 1008.68 1008.70 1008.03 1007.37 1006.60 1006.08 1005.54 1005.63 1005.57 1005.22 1005.21 1005.19 1005.24 1005.25 1005.16 1005.32 1006.00 1006.33 1007.13 1007.62 1007.69 1008.20 1009.30 1010.53 1010.89
1017.13 1016.84 1016.55 1016.19 1015.84 1015.58 1015.39 1015.27 1015.25 1015.22 1015.09 1014.86 1014.57 1014.34 1012.64 1009.49 1007.96 1008.17 1008.21 1008.02 1007.65 1007.86 1007.39 1007.14 1006.52 1006.54 1005.92 1005.69 1005.56 1005.27 1005.07 1004.93 1004.96 1004.99 1005.09 1005.49 1006.55 1006.84 1007.92 1008.02 1007.94 1008.75 1009.44 1010.79 1010.42
1017.05 1016.75 1016.42 1016.09 1015.76 1015.45 1015.26 1015.17 1015.17 1015.13 1014.97 1014.71 1014.42 1013.54 1011.23 1008.17 1007.90 1007.90 1007.96 1007.46 1007.49 1007.22 1006.81 1006.84 1006.83 1006.48 1005.91 1005.37 1005.57 1005.21 1004.79 1004.65 1004.83 1004.98 1005.14 1005.91 1006.57 1007.84 1008.64 1008.50 1008.69 1009.12 1010.61 1011.07 1011.45
1016.94 1016.64 1016.30 1015.96 1015.69 1015.39 1015.16 1015.09 1015.11 1014.99 1014.76 1014.52 1014.22 1012.84 1009.35 1008.14 1008.14 1007.89 1007.51 1007.30 1007.47 1007.34 1007.03 1007.02 1007.03 1006.37 1005.83 1005.45 1004.98 1004.69 1004.58 1003.87 1004.93 1005.11 1005.72 1006.02 1006.79 1008.34 1008.80 1008.76 1009.07 1009.76 1010.84 1011.39 1011.57
1016.84 1016.54 1016.21 1015.84 1015.56 1015.28 1015.09 1015.03 1014.90 1014.68 1014.48 1014.24 1013.45 1011.69 1008.01 1008.46 1007.76 1006.94 1006.92 1006.45 1006.86 1007.07 1007.15 1007.24 1006.69 1005.74 1005.35 1004.75 1004.26 1004.22 1003.67 1004.42 1004.71 1005.38 1005.45 1005.71 1006.98 1008.65 1008.98 1008.89 1009.53 1010.10 1010.44 1010.73 1011.71
1016.72 1016.40 1016.04 1015.69 1015.38 1015.08 1015.01 1014.87 1014.65 1014.38 1014.08 1013.30 1012.30 1010.99 1007.87 1006.68 1006.54 1006.52 1006.71 1006.42 1006.22 1006.47 1006.67 1006.55 1005.84 1005.01 1004.55 1003.92 1003.52 1004.14 1004.14 1004.49 1004.70 1005.51 1005.44 1005.93 1007.34 1008.42 1008.86 1009.01 1009.32 1009.75 1010.05 1011.09 1012.20
1016.58 1016.25 1015.89 1015.54 1015.25 1014.96 1014.61 1014.03 1013.79 1012.80 1011.67 1009.09 1008.46 1007.72 1006.91 1006.68 1006.90 1006.20 1006.23 1006.22 1005.97 1005.95 1005.63 1005.88 1005.20 1004.28 1004.10 1004.95 1005.04 1005.02 1004.80 1004.51 1004.92 1005.72 1005.71 1006.32 1007.21 1008.13 1008.62 1008.92 1009.14 1009.49 1010.22 1011.43 1012.45
1016.38 1016.06 1015.79 1015.44 1015.14 1014.90 1014.23 1011.41 1010.09 1010.20 1008.67 1008.31 1008.09 1007.73 1007.20 1006.90 1005.74 1005.58 1005.80 1005.55 1005.47 1005.14 1005.32 1005.74 1004.78 1004.09 1005.18 1005.32 1005.11 1004.93 1004.62 1004.20 1005.03 1005.65 1005.46 1006.18 1006.99 1007.71 1008.15 1008.54 1008.70 1009.38 1010.17 1011.19 1012.26
1016.11 1015.85 1015.56 1015.29 1015.03 1014.68 1012.29 1010.53 1010.00 1009.72 1007.88 1007.33 1007.06 1006.61 1006.24 1006.41 1004.90 1004.97 1005.38 1004.94 1004.92 1004.79 1005.13 1004.64 1004.35 1004.74 1005.13 1004.97 1004.81 1004.35 1004.01 1004.10 1004.43 1005.40 1005.52 1005.78 1006.18 1007.00 1007.91 1008.37 1008.81 1009.16 1009.56 1010.13 1010.48
1015.74 1015.52 1015.30 1015.03 1015.18 1012.54 1011.21 1010.15 1010.17 1009.89 1007.07 1006.15 1006.10 1005.52 1006.06 1005.54 1005.00 1004.51 1004.88 1004.94 1004.61 1004.37 1004.82 1004.63 1004.45 1005.19 1004.92 1004.69 1004.64 1003.87 1004.35 1004.29 1004.24 1004.38 1003.73 1005.13 1004.33 1006.13 1007.02 1007.52 1008.23 1008.60 1009.05 1009.46 1009.91
1015.30 1015.13 1015.00 1015.08 1013.29 1011.69 1010.28 1010.24 1010.04 1009.45 1005.47 1004.93 1005.29 1005.70 1005.03 1004.66 1003.70 1004.78 1004.74 1004.83 1004.29 1004.27 1004.93 1004.33 1004.64 1004.83 1004.63 1004.27 1004.34 1003.85 1004.46 1003.90 1003.72 1003.61 1003.77 1004.17 1004.12 1005.00 1006.25 1006.47 1007.27 1007.75 1008.14 1008.61 1009.19
1014.80 1014.66 1014.62 1014.11 1013.19 1010.96 1010.76 1010.32 1009.68 1007.46 1003.81 1003.97 1004.34 1004.60 1004.53 1004.12 1003.73 1004.10 1004.83 1004.81 1004.39 1004.26 1004.79 1004.01 1004.77 1004.72 1004.17 1004.31 1004.38 1004.24 1004.20 1003.72 1003.43 1002.87 1002.52 1003.33 1003.75 1003.54 1004.48 1005.64 1006.44 1007.05 1007.60 1008.16 1008.70
1014.10 1014.00 1014.18 1012.41 1010.58 1010.69 1010.62 1009.52 1007.26 1004.45 1003.43 1003.20 1003.09 1003.41 1003.24 1003.28 1003.38 1003.69 1003.99 1004.17 1003.97 1004.01 1003.80 1004.23 1004.21 1004.34 1004.51 1003.95 1003.69 1003.89 1003.04 1001.97 1001.73 1001.73 1002.30 1003.57 1003.73 1003.54 1004.72 1005.68 1005.83 1006.35 1007.08 1007.92 1008.66
1013.28 1013.09 1012.92 1011.84 1011.36 1011.03 1010.01 1007.91 1004.71 1003.02 1002.17 1002.20 1002.21 1002.69 1002.40 1002.60 1002.69 1003.10 1003.29 1003.24 1003.69 1003.30 1002.66 1003.04 1003.17 1003.36 1003.42 1003.52 1002.41 1002.67 1001.96 1001.32 1000.93 1001.18 1002.19 1003.42 1002.99 1003.61 1004.67 1005.74 1006.21 1006.18 1006.68 1007.43 1008.12
1012.71 1011.74 1011.75 1010.95 1011.39 1010.99 1008.59 1005.61 1002.98 1002.41 1002.30 1001.80 1002.01 1001.91 1001.84 1002.11 1002.19 1002.63 1002.63 1002.57 1002.78 1003.14 1002.39 1002.16 1001.97 1002.18 1002.62 1002.62 1002.70 1002.24 1002.11 1001.02 1000.63 1001.37 1001.46 1001.80 1003.29 1004.34 1004.95 1005.57 1006.01 1006.04 1006.26 1006.83 1007.42
1011.07 1009.94 1010.02 1010.63 1010.88 1009.93 1007.29 1004.28 1003.47 1003.25 1002.67 1001.92 1001.01 1001.21 1001.03 1001.49 1001.81 1001.86 1002.01 1001.97 1002.19 1002.84 1002.30 1002.01 1001.79 1002.02 1002.38 1002.83 1002.78 1002.37 1001.25 1001.26 1000.86 1000.78 1000.62 1001.26 1001.94 1002.00 1004.07 1004.92 1005.57 1005.75 1006.07 1006.66 1007.27
1010.60 1008.28 1010.20 1010.47 1010.38 1008.29 1005.55 1003.87 1003.73 1003.25 1003.05 1001.83 1000.97 1000.84 1000.42 1000.64 1000.97 1001.08 1001.09 1001.28 1001.72 1002.29 1002.63 1002.26 1001.62 1001.80 1002.37 1001.83 1001.10 1001.85 1001.38 1001.18 1001.09 1000.19 1000.57 1000.48 1000.61 1001.43 1003.00 1004.17 1005.19 1005.83 1006.08 1006.96 1007.71
1009.47 1007.82 1010.22 1010.16 1008.40 1006.36 1004.72 1004.29 1004.42 1003.05 1002.86 1002.22 1001.68 1000.65 1000.28 1000.39 1000.57 1000.53 1000.49 1000.70 1001.05 1001.62 1002.08 1002.39 1001.60 1000.82 1000.99 1000.95 1001.53 1001.18 1000.65 1000.57 1000.19 1000.32 1000.60 1001.02 1001.12 1002.44 1002.89 1004.00 1005.11 1006.05 1006.86 1007.67 1008.55
1008.65 1008.62 1009.63 1009.36 1006.39 1005.40 1004.74 1004.31 1003.93 1003.14 1002.43 1001.77 1001.09 1000.74 1000.11 1000.10 1000.37 1000.22 1000.23 1000.45 1001.09 1001.19 1001.63 1001.98 1001.62 1000.90 1000.85 1001.02 1001.62 1001.09 1000.85 1000.43 999.77 999.19 999.69 1000.23 1000.73 1002.41 1003.21 1004.28 1005.12 1006.21 1007.50 1008.51 1009.11
1008.89 1007.36 1008.11 1007.89 1006.47 1004.85 1004.30 1003.76 1003.36 1003.12 1002.81 1002.26 1001.43 1001.06 1000.73 1000.41 1000.50 1000.08 1000.30 1001.06 1001.21 1001.19 1001.71 1001.84 1001.02 1000.65 999.96 999.91 999.87 1000.13 1000.04 1000.14 999.82 999.32 999.33 999.88 1000.45 1002.13 1003.36 1004.45 1005.83 1006.80 1007.77 1008.49 1009.32
1008.90 1007.28 1007.14 1006.01 1005.47 1004.96 1004.81 1004.21 1003.40 1002.76 1002.89 1002.48 1001.42 1001.13 1000.59 1000.20 1000.16 1000.35 1000.26 1001.09 1001.46 1001.69 1001.79 1001.69 1000.86 1000.75 1000.32 1000.78 1000.84 1000.34 999.85 999.98 999.82 999.12 999.08 999.24 999.88 1000.49 1002.99 1004.41 1005.83 1006.94 1007.92 1008.72 1009.41
1009.24 1008.30 1007.54 1006.30 1005.92 1005.20 1004.79 1003.96 1003.66 1003.08 1002.97 1001.92 1001.87 1001.17 1000.95 1000.68 1000.20 999.84 1000.21 1000.30 1000.46 1001.72 1001.36 1001.06 1000.70 1000.59 1000.68 1000.85 1001.08 1000.48 1000.20 1000.11 999.98 999.54 1000.04 1000.13 1000.46 1001.82 1003.00 1004.73 1005.84 1006.77 1007.80 1008.67 1009.46
1010.86 1010.02 1008.86 1006.90 1005.54 1005.02 1004.40 1004.50 1004.05 1004.09 1003.15 1002.78 1002.56 1002.03 1001.57 1001.75 1001.38 1000.81 1000.44 1000.48 1000.52 1000.76 1001.03 1000.99 1000.94 1001.27 1000.73 1001.39 1001.55 1001.19 1000.57 1000.38 1000.29 1000.52 1000.56 1000.49 1001.54 1002.68 1003.55 1004.70 1005.63 1006.71 1007.80 1008.64 1009.39
Thickness
5740 5743 5746 5749 5750 5751 5753 5754 5756 5757 5759 5761 5763 5766 5770 5775 5784 5793 5798 5816 5817 5818 5820 5825 5825 5827 5828 5825 5828 5829 5810 5799 5805 5809 5808 5823 5814 5827 5835 5823 5824 5821 5818 5821 5811
5737 5740 5744 5747 5749 5751 5752 5753 5754 5756 5758 5761 5762 5765 5769 5773 5787 5797 5820 5818 5816 5817 5818 5816 5815 5822 5819 5819 5821 5816 5809 5802 5818 5824 5822 5822 5823 5826 5820 5819 5814 5809 5814 5813 5803
5734 5738 5742 5745 5748 5750 5751 5752 5753 5756 5758 5760 5762 5764 5768 5772 5786 5809 5819 5817 5815 5817 5822 5821 5821 5819 5812 5820 5818 5818 5805 5816 5822 5828 5830 5826 5821 5830 5819 5810 5822 5811 5800 5800 5794
5732 5735 5739 5742 5746 5748 5750 5751 5752 5754 5756 5759 5761 5764 5767 5778 5777 5817 5818 5819 5817 5818 5818 5816 5816 5809 5806 5805 5821 5810 5822 5822 5825 5830 5826 5820 5828 5819 5821 5817 5825 5827 5813 5800 5791
5729 5733 5736 5740 5744 5747 5749 5750 5751 5751 5753 5757 5760 5763 5773 5779 5795 5818 5819 5820 5819 5816 5811 5809 5807 5808 5800 5808 5815 5813 5819 5826 5830 5830 5831 5834 5817 5815 5809 5817 5824 5819 5809 5796 5795
5726 5730 5733 5737 5741 5745 5747 5749 5749 5750 5751 5755 5759 5762 5774 5775 5815 5815 5817 5820 5821 5816 5814 5814 5811 5814 5809 5808 5807 5819 5822 5825 5830 5829 5831 5821 5812 5817 5807 5817 5815 5808 5803 5789 5798
5723 5727 5731 5735 5738 5742 5745 5747 5747 5748 5750 5753 5757 5765 5776 5794 5815 5816 5817 5819 5822 5821 5812 5820 5821 5811 5816 5808 5821 5819 5810 5823 5825 5828 5823 5825 5803 5792 5803 5810 5803 5801 5788 5788 5785
5719 5723 5728 5732 5735 5739 5742 5744 5745 5747 5749 5752 5756 5767 5780 5810 5811 5813 5819 5817 5822 5824 5821 5824 5823 5816 5813 5823 5819 5809 5815 5806 5818 5823 5820 5818 5784 5794 5805 5805 5797 5793 5781 5776 5781
5715 5719 5724 5728 5732 5736 5739 5741 5744 5746 5748 5751 5760 5768 5783 5806 5803 5819 5822 5814 5817 5819 5820 5820 5819 5812 5816 5804 5802 5810 5798 5795 5805 5822 5818 5815 5790 5793 5804 5803 5790 5785 5784 5783 5774
5710 5715 5719 5724 5729 5733 5736 5739 5741 5745 5749 5754 5762 5760 5790 5795 5811 5816 5822 5821 5812 5811 5805 5805 5807 5802 5808 5810 5788 5787 5794 5800 5797 5808 5817 5806 5790 5793 5800 5799 5792 5789 5787 5773 5760
5706 5710 5715 5719 5724 5729 5734 5744 5749 5750 5758 5779 5782 5782 5791 5804 5810 5810 5818 5812 5813 5804 5787 5800 5788 5786 5801 5797 5798 5797 5795 5797 5806 5809 5806 5797 5791 5791 5798 5796 5790 5787 5778 5762 5751
5702 5706 5709 5714 5719 5724 5732 5754 5765 5764 5769 5778 5777 5778 5789 5797 5792 5804 5818 5797 5795 5784 5796 5783 5777 5808 5801 5799 5797 5797 5794 5802 5805 5808 5810 5799 5788 5796 5799 5795 5795 5785 5777 5766 5754
5697 5701 5705 5709 5713 5720 5741 5753 5762 5766 5766 5771 5779 5780 5787 5792 5794 5795 5806 5804 5791 5786 5784 5780 5793 5803 5795 5793 5791 5800 5800 5801 5800 5801 5809 5801 5790 5791 5795 5796 5792 5791 5790 5783 5780
5693 5696 5700 5705 5710 5732 5738 5752 5755 5759 5760 5766 5770 5783 5785 5792 5780 5812 5812 5800 5792 5785 5786 5785 5803 5788 5790 5788 5797 5790 5809 5807 5804 5799 5795 5809 5784 5789 5792 5792 5789 5790 5789 5788 5787
5690 5693 5696 5698 5717 5727 5741 5745 5751 5751 5738 5771 5768 5792 5792 5784 5798 5789 5813 5799 5783 5786 5784 5779 5783 5783 5781 5792 5804 5797 5809 5811 5812 5806 5805 5800 5793 5793 5797 5789 5790 5794 5796 5797 5796
5688 5691 5693 5700 5708 5729 5732 5740 5743 5735 5736 5759 5773 5768 5770 5782 5788 5794 5789 5803 5804 5789 5785 5792 5802 5795 5797 5804 5805 5812 5802 5808 5813 5817 5791 5805 5798 5798 5801 5797 5798 5803 5802 5800 5798
5688 5691 5691 5705 5723 5724 5728 5734 5729 5734 5771 5756 5762 5773 5776 5772 5777 5782 5777 5775 5770 5756 5762 5776 5783 5798 5801 5792 5810 5804 5802 5788 5786 5788 5773 5803 5791 5799 5810 5808 5810 5806 5805 5803 5800
5687 5691 5696 5704 5711 5717 5725 5728 5723 5754 5762 5778 5774 5772 5767 5777 5779 5779 5776 5771 5784 5784 5780 5764 5759 5790 5807 5796 5804 5803 5813 5792 5769 5777 5777 5799 5787 5799 5818 5815 5813 5818 5815 5810 5804
5685 5695 5696 5706 5705 5712 5723 5722 5743 5755 5765 5767 5768 5760 5763 5775 5778 5775 5775 5777 5787 5788 5772 5772 5777 5812 5811 5816 5813 5802 5791 5833 5813 5813 5798 5810 5803 5807 5809 5805 5809 5813 5816 5812 5810
5696 5705 5703 5701 5703 5712 5721 5724 5742 5755 5763 5769 5759 5770 5759 5768 5768 5773 5772 5790 5786 5792 5804 5790 5771 5803 5806 5811 5811 5806 5832 5798 5812 5770 5775 5797 5799 5806 5797 5801 5807 5810 5813 5814 5814
5695 5708 5695 5698 5703 5713 5717 5735 5741 5758 5760 5762 5767 5765 5775 5773 5778 5775 5779 5793 5798 5791 5796 5794 5792 5786 5797 5794 5804 5798 5799 5809 5809 5820 5778 5786 5802 5840 5818 5815 5807 5809 5816 5812 5809
5703 5701 5693 5699 5704 5722 5724 5734 5725 5752 5763 5764 5771 5778 5776 5780 5775 5778 5779 5790 5808 5802 5780 5793 5793 5783 5792 5817 5816 5813 5814 5818 5798 5792 5809 5801 5806 5830 5832 5825 5816 5806 5809 5809 5804
5705 5697 5698 5700 5707 5715 5728 5731 5740 5747 5757 5764 5769 5782 5793 5782 5769 5785 5789 5806 5805 5800 5788 5794 5781 5768 5777 5799 5804 5798 5809 5819 5832 5834 5805 5799 5813 5832 5830 5822 5821 5809 5804 5799 5798
5703 5697 5699 5704 5717 5723 5722 5730 5735 5755 5754 5764 5770 5780 5778 5775 5785 5780 5783 5790 5800 5802 5796 5797 5793 5783 5782 5797 5813 5796 5808 5815 5822 5810 5815 5816 5819 5816 5816 5812 5807 5805 5803 5800 5796
5701 5703 5705 5703 5712 5719 5722 5727 5731 5740 5755 5763 5768 5773 5776 5770 5777 5773 5788 5782 5789 5784 5793 5793 5776 5791 5802 5799 5800 5803 5807 5809 5808 5827 5809 5825 5823 5836 5818 5812 5807 5805 5801 5795 5791
5694 5696 5704 5710 5711 5716 5707 5728 5730 5743 5747 5758 5756 5774 5779 5771 5780 5779 5784 5787 5784 5783 5788 5800 5779 5793 5784 5799 5796 5796 5808 5811 5814 5824 5815 5820 5815 5829 5827 5815 5805 5802 5796 5790 5786
5683 5688 5691 5692 5715 5717 5724 5724 5730 5737 5753 5760 5759 5763 5769 5771 5786 5794 5801 5800 5797 5787 5783 5786 5783 5773 5769 5786 5783 5772 5799 5806 5810 5815 5812 5800 5811 5816 5809 5804 5802 5797 5792 5786 5783